星链-4721 (STARLINK-4721 )

导读 | 星芒AI

STARLINK-4721 是 SpaceX Starlink 项目中的一颗低轨通信卫星,属于第 47 批部署的星链卫星群之一。该卫星于 2023 年发射,运行在约 550 公里的轨道高度,旨在为全球用户提供高速互联网服务。作为 Starlink 网络的一部分,它与其他卫星协同工作,提升网络覆盖和连接稳定性。该卫星采用先进的推进和通信技术,支持全球偏远地区的宽带接入,并具备自动避碰功能以确保太空安全。

基本信息
目录编号:
53796
目录名称:
STARLINK-4721
国际标识:
2022-111Z
轨道中心:
EARTH
卫星名称:
星链-4721
卫星全名:
星链-4721 (STARLINK-4721 )
卫星状态:
已陨落 最后检测时间 2025-08-31
发射日期:
2022-09-11 UTC
国别 :
美国 (US)
星等 :
--
轨道信息
数据来源 国际轨道数据
星历时间: 2025-08-31T18:23:50+0800
轨道信息已过期65天
半长轴: 6558.219km
偏心率: 0.000683
轨道倾角: 53.154°
近地点辐角 348.382°
升交点赤经 294.295°
平近点角 11.707°
近地点: 175.604km
远地点: 184.564km
周期: 88.092分钟
每日圈数: 16.346468
详细信息
固有亮度:
5
最大亮度:
2.5
卫星平台:
Starlink v1.5
覆盖范围:
全球
运营商:
太空探索技术公司
运营商所在国:
美国
制造商(研发单位):
太空探索技术公司
制造商所在国:
美国
使用方式:
暂无
卫星简介
星链(Starlink)计划是由太空探索技术公司(SpaceX)提出的一个巨型低轨卫星互联网星座项目,计划在2019年至2024年间在太空搭建由约1.2万颗卫星组成的“星链”网络,其中1584颗将部署在地球上空550千米处的近地轨道,并从2020年开始工作。该卫星仍在工作。